Location: Calvatone
(45.1167°N, 10.4333°E)
Time: 10:47:39
(UTC+00:00)

METEOR M2 - Pass Details

Date: 04 December 2023
Orbit: 818 x 826 km, 98.4° (Epoch: 24 February)

Event Time Altitude Azimuth Distance (km) Brightness Sun altitude
Rises 05:17:46 0° 13° (NNE) 3,372 ? -13.9°
Reaches altitude 10° 05:20:08 10° 14° (NNE) 2,433 ? -13.5°
Maximum altitude 05:25:32 89° 99° (E) 829 ? -12.6°
Drops below altitude 10° 05:30:54 10° 195° (SSW) 2,411 ? -11.7°
Sets 05:33:14 0° 195° (SSW) 3,338 ? -11.3°
